[[{"header":{"parameterUnit":"m.s-1","parameterCategory":1,"la1":30.2991,"la2":30.254,"lo1":-89.0895,"lo2":-89.0444,"dy":0.0017,"dx":0.0017,"nx":28,"ny":28,"refTime":"2024-04-19T21:00:00:Z","depth":0,"parameterNumber":2,"parameterNumberName":"U-component_of_WINDS"},"data":[0,0,0,0,0,0,0,0,0,0,0,0,0,0,0,0,0,0,0,0,0,0,0,0,0,0,0,0,0,0,0,0,0,0,0,0,0,0,0,0,0,0,0,0,0,0,0,0,0,0,0,0,0,0,0,0,0,0,-2.3051,-2.3052,0,-2.3085,-2.3085,-2.3086,-2.3037,-2.3035,-2.3033,-2.3032,-2.3065,-2.3068,-2.307,0,0,0,0,0,0,0,0,0,0,0,0,0,-2.2943,-2.2946,-2.3051,-2.3052,-2.3052,-2.3085,-2.3085,-2.3086,-2.3037,-2.3035,-2.3033,-2.3031,-2.3065,-2.3068,-2.3071,0,0,0,0,0,0,0,0,0,0,0,0,0,-2.2985,-2.2946,-2.3051,-2.3032,-2.303,-2.3085,-2.3085,-2.3086,-2.3037,-2.3035,-2.3032,-2.303,-2.3064,-2.3067,-2.3071,-2.3146,0,0,-2.3082,-2.3084,0,0,0,0,0,0,0,0,-2.2983,-2.2989,-2.3034,-2.3033,-2.3032,-2.3054,-2.306,-2.3106,-2.3038,-2.3035,-2.3032,-2.3029,-2.3064,-2.3067,-2.3079,-2.3148,-2.3149,-2.3083,-2.3085,-2.3087,-2.3088,0,0,0,0,0,0,0,-2.298,-2.2987,-2.3065,-2.3035,-2.3033,-2.3021,-2.3024,-2.3068,-2.3063,-2.3035,-2.3031,-2.3036,-2.3062,-2.3076,-2.308,-2.315,-2.3083,-2.3086,-2.3088,-2.309,-2.328,-2.3283,0,0,0,0,0,0,-2.2979,-2.2985,-2.3064,-2.3066,-2.3,-2.3025,-2.3028,-2.3049,-2.3063,-2.3062,-2.3038,-2.3034,-2.3071,-2.3075,-2.3081,-2.3169,-2.3087,-2.309,-2.3092,-2.3277,-2.3281,-2.3284,0,0,0,0,0,0,-2.2977,-2.2987,-2.3062,-2.3024,-2.3033,-2.303,-2.3054,-2.3051,-2.3065,-2.3065,-2.3064,-2.3053,-2.3069,-2.3075,-2.313,-2.3169,-2.3092,-2.3095,-2.3274,-2.3278,-2.3282,-2.3346,0,0,0,0,0,0,-2.2974,-2.2986,-2.3015,-2.3026,-2.3035,-2.3112,-2.3056,-2.3054,-2.3071,-2.3066,-2.3079,-2.3078,-2.3067,-2.3125,-2.3134,-2.3173,-2.3098,-2.327,-2.3276,-2.3281,-2.334,-2.3352,-2.3362,0,0,0,0,0,-2.2971,-2.3032,-2.3017,-2.3027,-2.3071,-2.3114,-2.3119,-2.3106,-2.3075,-2.3103,-2.3104,-2.3078,-2.3163,-2.3131,-2.314,-2.3182,-2.3268,-2.3274,-2.328,-2.3336,-2.335,-2.3361,0,0,0,0,0,0,-2.3027,-2.3033,-2.3017,-2.3083,-2.3098,-2.3106,-2.3141,-2.3121,-2.3145,-2.3139,-2.3121,-2.3124,-2.3182,-2.3187,-2.3151,-2.3254,-2.321,-2.3219,-2.3249,-2.3262,-2.3273,-2.327,-2.3101,0,0,0,0,0,-2.3047,-2.3081,-2.3085,-2.3143,-2.3151,-2.3145,-2.3163,-2.3151,-2.3166,-2.3172,-2.3177,-2.3192,-2.3222,-2.3242,-2.327,-2.3341,-2.3342,-2.3374,-2.3384,-2.3393,-2.3401,-2.3437,-2.3451,-2.3304,-2.3304,-2.3304,0,0,-2.3088,-2.3096,-2.3119,-2.3154,-2.3165,-2.32,-2.3151,-2.3191,-2.3217,-2.3178,-2.323,-2.3234,-2.3249,-2.3312,-2.334,-2.3318,-2.3442,-2.3401,-2.3408,-2.3411,-2.3445,-2.3459,-2.3471,-2.3308,-2.3308,-2.3307,0,0,-2.3182,-2.3192,-2.3241,-2.3253,-2.3269,-2.3264,-2.3276,-2.3287,-2.3288,-2.3339,-2.3311,-2.3341,-2.3394,-2.3406,-2.3419,-2.3517,-2.3494,-2.3527,-2.3582,-2.3618,-2.363,-2.364,-2.3674,-2.3687,-2.3534,-2.3534,-2.3534,0,-2.3232,-2.3285,-2.3269,-2.3311,-2.3327,-2.3294,-2.3343,-2.3355,-2.338,-2.3391,-2.3366,-2.3431,-2.3439,-2.3504,-2.3528,-2.354,-2.3552,-2.3525,-2.363,-2.364,-2.3649,-2.3681,-2.3694,-2.3538,-2.3538,-2.3537,-2.3537,0,-2.3345,-2.3382,-2.342,-2.3444,-2.3465,-2.351,-2.3501,-2.3523,-2.3509,-2.3507,-2.3559,-2.3568,-2.3597,-2.3611,-2.3598,-2.3674,-2.3659,-2.3633,-2.3588,-2.3667,-2.3697,-2.371,-2.3544,-2.3542,-2.3541,-2.354,0,0,-2.3476,-2.3491,-2.3505,-2.3515,-2.353,-2.3558,-2.3602,-2.363,-2.3649,-2.3667,-2.3703,-2.3748,-2.3723,-2.3737,-2.3725,-2.3757,-2.3833,-2.3726,-2.3726,-2.3745,-2.3916,-2.3936,-2.3951,-2.3818,-2.382,-2.3822,-2.3915,0,-2.3569,-2.3645,-2.3631,-2.3705,-2.3738,-2.3707,-2.3744,-2.3757,-2.3756,-2.3784,-2.3783,-2.3815,-2.3779,-2.3788,-2.3818,-2.3818,-2.3867,-2.3811,-2.385,-2.3852,-2.3847,-2.3967,-2.3988,-2.4075,-2.3926,-2.3928,-2.393,0,-2.3689,-2.3711,-2.3788,-2.3797,-2.381,-2.3845,-2.3869,-2.3896,-2.391,-2.3907,-2.3923,-2.3905,-2.3947,-2.3902,-2.396,-2.3922,-2.3937,-2.394,-2.3943,-2.3946,-2.3896,-2.3973,-2.4103,-2.4116,-2.3948,-2.3947,-2.3946,0,-2.3776,-2.3825,-2.3877,-2.3887,-2.3899,-2.3924,-2.393,-2.3941,-2.3959,-2.398,-2.3991,-2.4017,-2.4031,-2.4051,-2.404,-2.4008,-2.4099,-2.4053,-2.4097,-2.4098,-2.4118,-2.4117,-2.4252,-2.4128,-2.4128,-2.4128,-2.4128,0,-2.3881,-2.3929,-2.3916,-2.3948,-2.4,-2.3984,-2.4036,-2.4039,-2.4049,-2.408,-2.4055,-2.4085,-2.4068,-2.4097,-2.4088,-2.4137,-2.4143,-2.4142,-2.4139,-2.4144,-2.4144,-2.4153,-2.4147,-2.4131,-2.4131,-2.413,-2.4129,0,-2.3987,-2.3981,-2.4035,-2.4042,-2.4045,-2.4083,-2.4089,-2.4118,-2.4115,-2.4155,-2.4163,-2.4158,-2.419,-2.4181,-2.4216,-2.421,-2.4272,-2.4261,-2.4267,-2.4264,-2.4308,-2.4304,-2.4454,-2.4473,-2.4338,-2.4339,-2.434,0,-2.4055,-2.4091,-2.4102,-2.4122,-2.413,-2.4161,-2.4179,-2.4164,-2.4183,-2.4201,-2.4229,-2.4258,-2.4281,-2.4334,-2.4333,-2.4359,-2.4349,-2.4399,-2.4352,-2.4356,-2.4349,-2.4347,-2.435,-2.4409,-2.441,-2.4412,-2.4413,0,-2.4176,-2.4171,-2.4198,-2.4223,-2.4245,-2.4264,-2.4281,-2.4298,-2.4284,-2.4307,-2.434,-2.4358,-2.4393,-2.4422,-2.4446,-2.4451,-2.443,-2.4427,-2.4439,-2.4444,-2.4446,-2.4445,-2.4292,-2.4424,-2.4423,-2.4422,-2.4421,-2.4421,-2.4265,-2.4295,-2.4308,-2.4338,-2.4349,-2.4365,-2.4393,-2.4393,-2.442,-2.4448,-2.4437,-2.4474,-2.4486,-2.4516,-2.4524,-2.4553,-2.4533,-2.455,-2.4554,-2.4558,-2.4564,-2.4442,-2.4557,-2.4556,-2.4556,-2.4556,-2.4556,0,-2.4384,-2.439,-2.4418,-2.4443,-2.4466,-2.4444,-2.4461,-2.4482,-2.4515,-2.4529,-2.4552,-2.4588,-2.4617,-2.4618,-2.4644,-2.4666,-2.4657,-2.4674,-2.4672,-2.4673,-2.458,-2.4567,-2.4681,-2.4681,-2.4681,-2.4681,-2.4681,-2.4681,-2.4449,-2.4499,-2.4495,-2.455,-2.4555,-2.4592,-2.4603,-2.4618,-2.4628,-2.467,-2.4694,-2.4694,-2.4702,-2.4729,-2.4754,-2.4753,-2.4764,-2.4784,-2.478,-2.4692,-2.468,-2.4668,-2.4656,-2.4787,-2.4787,-2.4871,-2.4872,-2.4872]},{"header":{"parameterUnit":"m.s-1","parameterCategory":1,"la1":30.2991,"la2":30.254,"lo1":-89.0895,"lo2":-89.0444,"dy":0.0017,"dx":0.0017,"nx":28,"ny":28,"refTime":"2024-04-19T21:00:00:Z","depth":0,"parameterNumber":3,"parameterNumberName":"V-component_of_WINDS"},"data":[0,0,0,0,0,0,0,0,0,0,0,0,0,0,0,0,0,0,0,0,0,0,0,0,0,0,0,0,0,0,0,0,0,0,0,0,0,0,0,0,0,0,0,0,0,0,0,0,0,0,0,0,0,0,0,0,0,0,-6.736,-6.736,0,-6.7395,-6.7396,-6.7396,-6.7307,-6.7304,-6.7301,-6.7298,-6.733,-6.7333,-6.7337,0,0,0,0,0,0,0,0,0,0,0,0,0,-6.7211,-6.7214,-6.736,-6.736,-6.7361,-6.7395,-6.7396,-6.7396,-6.7307,-6.7304,-6.73,-6.7297,-6.7329,-6.7333,-6.7337,0,0,0,0,0,0,0,0,0,0,0,0,0,-6.7264,-6.7215,-6.736,-6.7321,-6.7318,-6.7395,-6.7396,-6.7396,-6.7308,-6.7304,-6.73,-6.7296,-6.7327,-6.7332,-6.7338,-6.7453,0,0,-6.7353,-6.7356,0,0,0,0,0,0,0,0,-6.7261,-6.7269,-6.7326,-6.7324,-6.732,-6.7342,-6.7354,-6.7415,-6.7309,-6.7311,-6.7298,-6.7294,-6.7337,-6.7341,-6.7357,-6.7455,-6.7456,-6.7354,-6.7357,-6.7359,-6.7361,0,0,0,0,0,0,0,-6.7257,-6.7267,-6.7374,-6.7327,-6.7323,-6.73,-6.7303,-6.7366,-6.7347,-6.7311,-6.7305,-6.731,-6.7335,-6.7352,-6.7357,-6.7456,-6.7354,-6.7358,-6.7361,-6.7363,-6.765,-6.7654,0,0,0,0,0,0,-6.7259,-6.7265,-6.7373,-6.7375,-6.728,-6.7306,-6.7309,-6.7339,-6.7346,-6.7343,-6.7314,-6.7306,-6.7345,-6.7351,-6.7358,-6.7493,-6.7359,-6.7364,-6.7367,-6.7646,-6.7651,-6.7656,0,0,0,0,0,0,-6.7256,-6.727,-6.7371,-6.7318,-6.7329,-6.7313,-6.7348,-6.7342,-6.736,-6.7349,-6.7344,-6.7335,-6.7342,-6.735,-6.743,-6.7493,-6.7366,-6.7371,-6.764,-6.7647,-6.7653,-6.7765,0,0,0,0,0,0,-6.7253,-6.7269,-6.7314,-6.732,-6.7332,-6.7445,-6.7352,-6.7346,-6.7369,-6.7359,-6.7368,-6.7365,-6.734,-6.7423,-6.7435,-6.7498,-6.7375,-6.7634,-6.7643,-6.7651,-6.7756,-6.7775,-6.7791,0,0,0,0,0,-6.7248,-6.7343,-6.7317,-6.733,-6.7388,-6.7449,-6.7456,-6.7426,-6.7375,-6.7419,-6.7412,-6.7365,-6.7484,-6.7432,-6.7445,-6.751,-6.763,-6.7641,-6.7651,-6.7748,-6.7771,-6.7791,0,0,0,0,0,0,-6.7343,-6.7343,-6.7314,-6.7415,-6.7433,-6.7433,-6.7488,-6.7452,-6.7483,-6.7472,-6.7433,-6.7436,-6.7523,-6.7524,-6.7466,-6.7622,-6.7548,-6.7562,-6.7618,-6.764,-6.7657,-6.7654,-6.7379,0,0,0,0,0,-6.7377,-6.7427,-6.7423,-6.7513,-6.7523,-6.7505,-6.753,-6.7506,-6.7522,-6.7528,-6.7527,-6.7543,-6.7584,-6.7612,-6.7649,-6.7756,-6.7755,-6.7807,-6.7824,-6.7839,-6.7851,-6.7906,-6.7929,-6.7689,-6.7689,-6.7689,0,0,-6.7445,-6.7451,-6.7485,-6.7532,-6.7543,-6.7595,-6.7511,-6.757,-6.7607,-6.7537,-6.7612,-6.7612,-6.7627,-6.7721,-6.7762,-6.7725,-6.7917,-6.7852,-6.7864,-6.7867,-6.7919,-6.7942,-6.7962,-6.7696,-6.7695,-6.7694,0,0,-6.7596,-6.7606,-6.7681,-6.7695,-6.7713,-6.77,-6.7718,-6.7725,-6.7723,-6.7798,-6.7747,-6.779,-6.7862,-6.7875,-6.7891,-6.8048,-6.8005,-6.8061,-6.8153,-6.8208,-6.8227,-6.8243,-6.8299,-6.8319,-6.8073,-6.8073,-6.8073,0,-6.7678,-6.7755,-6.7724,-6.7786,-6.7808,-6.7749,-6.7824,-6.7837,-6.7867,-6.7882,-6.7841,-6.793,-6.7936,-6.8032,-6.807,-6.8085,-6.8104,-6.8059,-6.8227,-6.8243,-6.8258,-6.831,-6.8331,-6.808,-6.8079,-6.8078,-6.8078,0,-6.7855,-6.7909,-6.7968,-6.7999,-6.8027,-6.8096,-6.8074,-6.8106,-6.808,-6.8071,-6.8148,-6.8154,-6.8191,-6.8212,-6.8186,-6.8304,-6.828,-6.8234,-6.8159,-6.8288,-6.8336,-6.8356,-6.8089,-6.8087,-6.8085,-6.8083,0,0,-6.8066,-6.808,-6.8102,-6.8116,-6.8132,-6.8173,-6.8238,-6.8276,-6.8304,-6.8326,-6.8379,-6.8442,-6.8399,-6.8417,-6.8392,-6.8441,-6.8564,-6.8388,-6.8388,-6.842,-6.8693,-6.8728,-6.8751,-6.8536,-6.854,-6.8543,-6.8692,0,-6.8214,-6.8328,-6.8302,-6.8414,-6.8463,-6.8408,-6.8464,-6.848,-6.8474,-6.8513,-6.8505,-6.855,-6.8491,-6.8501,-6.8547,-6.854,-6.8618,-6.8528,-6.8584,-6.8586,-6.8581,-6.8777,-6.8813,-6.8953,-6.871,-6.8714,-6.8716,0,-6.8402,-6.8434,-6.8551,-6.856,-6.8579,-6.8631,-6.8664,-6.8703,-6.8719,-6.8711,-6.8732,-6.8698,-6.8761,-6.8687,-6.8772,-6.8712,-6.8733,-6.8733,-6.8738,-6.8741,-6.8658,-6.8784,-6.8997,-6.9018,-6.8745,-6.8743,-6.8741,0,-6.8544,-6.8615,-6.8694,-6.8708,-6.872,-6.8758,-6.8764,-6.8776,-6.8801,-6.8829,-6.8844,-6.8879,-6.8898,-6.8925,-6.8901,-6.8849,-6.899,-6.8914,-6.8984,-6.8984,-6.9015,-6.9013,-6.9233,-6.903,-6.903,-6.903,-6.9029,0,-6.8712,-6.8785,-6.8758,-6.8807,-6.8887,-6.8857,-6.8936,-6.8936,-6.8948,-6.8994,-6.8948,-6.8992,-6.8958,-6.8999,-6.898,-6.9053,-6.9062,-6.9056,-6.905,-6.906,-6.9061,-6.9072,-6.9062,-6.9035,-6.9034,-6.9033,-6.9032,0,-6.8883,-6.8868,-6.895,-6.8956,-6.8959,-6.9018,-6.9022,-6.9066,-6.9057,-6.9116,-6.9128,-6.9113,-6.9159,-6.9138,-6.9185,-6.9172,-6.9267,-6.9248,-6.9262,-6.9257,-6.9328,-6.9321,-6.9562,-6.9592,-6.9371,-6.9373,-6.9375,0,-6.899,-6.9046,-6.9058,-6.9087,-6.9097,-6.9144,-6.9169,-6.9141,-6.9169,-6.9192,-6.9233,-6.9276,-6.9308,-6.9383,-6.9376,-6.9412,-6.9393,-6.9475,-6.9398,-6.9406,-6.9393,-6.939,-6.9395,-6.949,-6.9493,-6.9495,-6.9497,0,-6.9183,-6.9173,-6.9213,-6.925,-6.9282,-6.9309,-6.9333,-6.9358,-6.9331,-6.9364,-6.9412,-6.9437,-6.9486,-6.9528,-6.956,-6.9565,-6.9526,-6.9521,-6.9539,-6.9549,-6.9555,-6.9552,-6.9303,-6.9515,-6.9514,-6.9512,-6.9511,-6.951,-6.9325,-6.9372,-6.9388,-6.9433,-6.9448,-6.9471,-6.9513,-6.951,-6.955,-6.9589,-6.9569,-6.9624,-6.9638,-6.9677,-6.9687,-6.9728,-6.9696,-6.9722,-6.9728,-6.9735,-6.9744,-6.9549,-6.9734,-6.9734,-6.9733,-6.9733,-6.9732,0,-6.9514,-6.9523,-6.9565,-6.96,-6.9635,-6.9598,-6.9622,-6.9653,-6.9703,-6.972,-6.9753,-6.9807,-6.9848,-6.9844,-6.9881,-6.9915,-6.9898,-6.9926,-6.9922,-6.9924,-6.9772,-6.9752,-6.9939,-6.9939,-6.9939,-6.9939,-6.9939,-6.9939,-6.9617,-6.9695,-6.9687,-6.977,-6.9777,-6.9832,-6.9849,-6.9869,-6.9883,-6.9946,-6.9981,-6.9978,-6.9987,-7.0024,-7.006,-7.0057,-7.0072,-7.0107,-7.0098,-6.9955,-6.9935,-6.9915,-6.9897,-7.011,-7.0111,-7.0246,-7.0247,-7.0248]}]]